General Mitchell International Airport
KMKE : now visible

Airfield :











YOU CAN JOIN US ON...

 
LOGIN :

Register | Disclaimer

   EN    FR    IT 

 









Legend :    VFR   Marginal VFR   IFR   Intensive IFR   Very Intensive IFR
Visi :
Ceiling :
>= 8 km
>= 3000ft
5 to 8 km
1000 to 3000 ft
1500m to 5 km
500 to 1000 ft
800 to 1500m
200 to 500 ft
< 800m
< 200 ft
Symbols :   Thunderstorms  Fog  Heavy snow  Heavy precipitations  Wind > 20 kt






- Airport Elevation : 723 ft
- IATA code : MKE


KMKE - General Mitchell International

CURRENT METAR :
  • 280952Z 24008KT 10SM CLR 00/M06 A3002 RMK AO2 SLP174 T00001061

EXPIRED METARs :
  • 280852Z 24010KT 10SM CLR M01/M06 A3003 RMK AO2 SLP176 T10061061 58014
  • 280752Z 25008KT 10SM CLR M01/M06 A3006 RMK AO2 SLP187 T10061056

TAF KMKE
Valid from the 28 at 09:00 until the 29 at 12:00 UTC


280907Z 2809/2912 24013KT P6SM SKC WS020/26040KT
FM281300 24012G20KT P6SM SKC
FM282000 25011KT P6SM SKC
FM290200 28005KT P6SM SCT200
KZAU FIR / North America



MET'MAP, your aeronautical weather chart ! - Copyright ORBIFLY December 2007 - Disclaimer

ORBIFLY MET'MAP TEAM :

Programming & Development : Alexandra Zaïnal
Concept & original design : Baudouin d'Aumeries
Assistance for programming : Marc-Olivier Méhu
Technical & hardware support : Manuel Goepfert

Contact : metmap@orbifly.com




SOURCES & CREDITS :

   NOAA       Earth
Advisory